Wind_Speed
8 8 8 8 9 10 10 10 10 10 10 10 11 11 11 11 11 10 10 10 10 10 11 11 11 11 11 11 11 11 11 11 12 12 12 12 13 13 13 13 13 14 14
8 8 8 8 9 10 10 10 10 10 11 11 11 10 11 11 12 11 10 10 10 10 10 10 11 11 11 11 11 11 11 11 12 13 13 12 13 12 13 13 13 14 15
8 8 8 8 8 9 9 9 9 10 10 10 10 10 11 11 11 11 10 10 10 10 10 10 10 10 11 11 10 11 11 11 11 12 12 13 13 13 14 14 14 15 15
8 8 7 8 8 8 8 9 9 9 9 10 10 9 10 10 10 10 10 10 10 10 11 11 11 10 10 11 11 11 11 11 11 11 11 12 12 13 13 14 14 14 15
6 7 7 7 7 7 7 7 8 8 8 9 8 8 9 9 10 10 10 11 11 11 11 11 11 11 11 10 10 10 10 10 11 11 11 12 12 13 14 14 14 15 15
5 5 5 5 6 6 6 7 7 8 8 8 7 8 8 8 9 10 10 11 11 10 11 11 11 11 11 10 10 10 10 10 11 11 12 12 13 14 15 15 15 16 15
4 4 4 4 5 6 6 6 6 7 8 8 8 8 9 9 9 9 10 10 11 11 11 11 11 11 11 11 11 11 11 11 11 12 12 13 13 14 14 15 16 16 16
3 3 4 4 5 5 6 6 6 7 8 8 8 8 8 9 9 9 10 10 10 11 11 10 10 10 10 11 11 12 12 12 12 12 13 13 14 14 14 15 16 16 17
3 3 4 4 4 5 5 5 6 6 6 6 7 7 8 8 8 8 10 10 10 10 10 10 10 10 10 11 12 12 12 13 13 13 14 14 14 15 16 16 17 18 18
4 4 4 5 5 5 4 4 5 5 5 6 6 6 6 6 7 7 8 8 9 9 9 9 9 10 10 11 12 12 13 13 14 14 14 15 15 16 16 16 16 17 17
4 4 4 4 4 4 4 4 4 5 5 5 5 5 5 5 5 6 7 8 8 8 9 9 10 10 10 11 11 12 12 13 14 14 14 15 16 17 17 17 17 18 18
3 4 5 5 4 4 4 5 6 5 5 5 5 5 5 6 6 6 7 8 8 8 9 10 10 10 10 11 12 12 12 13 13 14 15 16 17 17 17 18 18 19 19
4 4 5 5 5 5 5 6 6 6 5 5 5 5 5 5 6 6 7 8 7 8 9 11 11 11 11 11 12 12 13 13 14 15 15 16 16 17 18 19 19 19 19
5 4 5 5 6 6 6 6 6 6 6 6 6 5 5 5 6 7 7 8 8 9 9 10 10 11 11 12 12 13 13 14 14 15 16 17 17 17 18 19 19 20 21
5 5 5 6 6 7 7 7 7 6 6 6 6 6 5 6 6 7 8 9 9 10 10 10 11 11 11 12 12 13 14 14 15 15 17 18 18 18 19 20 20 21 22
6 5 6 7 7 7 7 8 8 7 7 7 7 7 7 8 8 8 8 9 9 9 10 10 11 11 11 12 12 13 13 14 15 16 17 18 19 20 21 21 21 22 23
6 7 7 7 7 7 7 7 8 8 8 8 8 8 8 8 8 9 9 9 10 10 10 10 11 12 12 13 13 14 15 15 16 17 18 19 20 21 22 23 24 24 25
7 7 8 8 8 8 8 8 8 8 8 8 9 9 9 9 10 10 10 10 10 11 11 12 13 13 14 15 15 16 17 17 18 19 20 21 22 23 23 24 25 25 26
8 9 8 8 8 8 9 9 9 9 8 8 9 9 10 11 11 11 11 11 11 12 12 13 14 14 15 16 17 17 18 19 21 22 22 22 23 24 25 25 26 26 26
9 9 9 9 9 9 10 10 9 9 9 10 11 11 11 11 11 11 11 12 12 13 14 14 15 16 17 17 18 19 20 21 22 23 23 24 24 25 25 26 26 27 27
10 10 10 10 10 9 10 9 9 10 10 11 11 11 11 12 11 12 12 13 14 14 15 16 17 18 18 19 19 20 21 22 23 24 24 24 25 25 26 26 27 27 28
11 11 10 10 10 10 10 10 10 10 11 11 11 11 12 12 12 13 13 14 15 16 16 17 18 19 19 19 20 21 21 22 23 24 24 24 25 25 26 26 27 28 28
11 11 11 11 11 11 11 12 12 12 12 12 12 12 12 13 14 14 15 15 16 17 18 19 19 19 19 20 21 22 23 24 24 24 25 25 26 26 26 27 28 28 28
12 12 12 12 13 13 13 13 13 13 13 13 14 14 14 14 15 15 16 17 18 18 19 20 20 20 21 22 23 24 24 25 26 26 27 26 26 27 27 28 28 29 29
14 13 13 14 14 15 15 15 15 15 15 15 15 16 16 16 17 17 18 18 19 20 20 21 21 22 23 24 25 25 26 26 26 27 27 27 27 27 28 28 29 29 29
15 15 15 15 16 16 17 17 17 17 17 17 17 17 18 19 19 20 20 20 21 21 22 22 23 23 24 25 26 27 27 27 28 28 28 28 28 28 28 29 29 30 30
Wind_Direction
284 278 272 268 268 265 265 265 264 266 265 259 255 256 253 253 251 253 253 252 253 256 258 258 256 258 261 262 264 267 270 269 266 265 267 268 272 276 280 277 273 270 270
284 280 275 270 269 267 263 265 265 266 264 262 258 253 251 250 249 247 250 252 253 256 258 257 254 256 262 263 264 265 267 270 268 267 266 267 271 276 279 280 276 274 273
281 279 274 270 269 269 267 266 266 267 265 262 258 257 255 250 247 246 251 255 258 259 259 259 258 262 264 264 264 265 266 267 269 271 268 270 272 275 277 280 279 276 273
282 278 273 270 269 268 267 269 268 265 264 262 260 260 256 249 247 248 251 255 260 261 258 258 259 262 264 266 267 270 269 267 267 270 271 274 275 275 278 281 282 280 278
280 275 275 271 271 271 271 272 267 262 265 268 261 259 256 251 250 251 255 256 258 259 258 260 258 259 264 267 269 270 271 270 269 270 272 275 277 278 278 283 283 283 282
279 278 277 274 274 274 275 273 272 265 266 268 263 256 253 253 252 255 259 257 256 257 259 261 258 259 262 265 268 269 271 273 273 273 276 276 278 279 281 283 282 283 283
285 277 280 278 277 279 279 277 277 275 269 266 264 261 255 255 255 259 260 257 254 256 259 261 258 260 261 264 267 270 272 275 276 278 279 280 282 282 283 283 285 285 285
299 287 286 284 279 284 281 279 279 280 275 270 266 263 261 262 262 259 259 262 258 258 261 262 263 265 266 268 271 272 275 276 279 281 283 282 282 282 284 284 285 285 285
301 302 297 287 285 288 285 280 282 287 281 276 273 269 265 265 262 259 261 263 265 267 267 268 270 269 272 274 274 274 277 278 279 281 281 282 282 284 284 285 285 284 284
306 305 298 294 296 291 291 290 290 284 285 286 285 281 271 266 266 266 267 267 268 269 270 270 269 273 277 279 279 278 279 281 281 280 280 281 283 284 285 286 287 287 286
307 313 310 301 303 299 297 294 284 288 287 288 289 288 279 271 270 271 272 272 273 273 271 270 271 276 278 280 282 281 281 283 285 286 284 284 283 283 285 286 286 287 287
312 314 314 305 302 300 300 302 289 287 292 289 287 287 284 275 278 278 274 271 272 272 272 271 274 277 279 282 281 282 284 285 286 288 288 287 286 286 287 287 287 287 287
307 307 311 305 301 301 300 305 296 288 290 295 293 285 283 278 284 288 286 278 275 274 276 277 276 278 280 282 283 285 287 287 288 289 288 289 289 288 288 287 286 287 287
301 303 306 305 303 302 302 306 306 297 295 296 289 278 280 284 288 287 287 288 287 286 284 280 279 281 282 283 284 286 288 290 291 291 290 291 290 291 292 289 288 288 289
296 297 301 304 304 300 297 298 300 299 297 295 293 283 287 290 289 289 288 289 289 286 284 282 282 285 285 285 287 289 290 291 292 292 293 292 292 291 291 291 291 291 291
294 296 303 306 303 294 292 292 293 297 292 294 294 292 295 296 296 292 289 289 290 292 291 287 285 288 289 290 291 291 290 292 293 295 296 296 295 294 293 292 290 292 292
291 295 300 303 300 293 288 289 292 294 290 291 292 290 293 296 296 296 293 288 286 290 291 288 288 291 293 292 292 293 295 297 297 296 295 295 296 295 294 292 292 292 292
290 293 298 301 301 292 290 292 291 288 286 288 290 289 288 293 294 292 292 289 287 289 290 288 290 293 294 294 294 294 296 296 296 297 298 298 298 297 296 294 292 292 292
292 291 292 294 297 295 293 292 291 286 284 286 291 291 292 295 296 291 291 289 289 289 292 294 294 295 296 296 297 297 298 298 298 299 299 299 300 299 298 296 294 292 292
291 292 291 291 293 292 292 290 290 286 285 288 293 294 295 295 295 295 295 295 294 294 294 295 296 297 298 299 298 298 299 301 303 303 302 301 301 300 298 295 293 293 293
290 291 289 289 289 288 290 293 288 287 287 289 293 292 293 294 294 295 296 296 297 297 298 299 299 300 300 300 301 301 302 303 304 305 305 305 304 302 300 297 295 294 294
285 288 287 286 286 286 285 288 291 292 291 291 292 291 292 296 295 294 296 297 298 299 299 299 300 300 301 301 302 303 303 303 304 304 304 304 305 305 304 301 299 297 296
283 285 286 283 282 282 284 285 287 289 289 289 290 292 295 296 296 295 295 295 298 300 299 299 301 301 301 301 303 304 303 304 304 304 303 304 304 304 305 304 303 301 299
281 283 284 282 280 280 282 282 283 285 286 284 286 288 291 294 296 298 299 299 299 299 299 300 302 301 302 303 303 304 304 304 304 304 304 304 303 304 305 306 304 302 301
279 281 281 281 279 279 280 281 282 283 281 281 283 284 287 291 294 295 298 299 300 300 301 301 302 302 302 303 304 304 305 305 305 305 304 304 303 303 304 305 304 303 302
274 276 279 280 279 280 281 281 282 282 280 279 282 284 286 289 291 292 295 296 297 299 301 301 301 301 301 302 303 304 304 304 304 304 304 303 303 303 303 304 303 303 303
Height
5846 5846 5846 5846 5846 5846 5847 5847 5847 5847 5848 5848 5849 5850 5850 5851 5852 5852 5853 5854 5854 5855 5855 5856 5856 5857 5857 5857 5857 5857 5858 5858 5858 5858 5858 5858 5859 5859 5858 5858 5858 5858 5858
5844 5844 5844 5844 5844 5844 5844 5845 5845 5845 5845 5846 5846 5847 5848 5848 5849 5850 5851 5851 5852 5852 5853 5853 5854 5854 5854 5854 5855 5855 5855 5855 5855 5855 5856 5856 5856 5856 5856 5856 5855 5855 5855
5842 5842 5842 5842 5842 5842 5842 5843 5843 5843 5843 5843 5844 5844 5845 5846 5847 5847 5848 5849 5850 5850 5850 5851 5851 5852 5852 5852 5852 5852 5853 5853 5853 5853 5853 5853 5853 5853 5853 5853 5852 5852 5852
5840 5840 5840 5840 5840 5840 5840 5840 5841 5841 5841 5841 5842 5842 5843 5843 5844 5845 5846 5847 5847 5848 5848 5849 5849 5849 5850 5850 5850 5850 5850 5850 5851 5850 5850 5851 5850 5850 5850 5850 5850 5849 5849
5839 5839 5838 5838 5838 5838 5838 5839 5839 5839 5839 5839 5839 5840 5840 5841 5842 5843 5844 5844 5845 5845 5846 5846 5847 5847 5847 5847 5848 5848 5848 5848 5848 5848 5848 5848 5848 5848 5847 5847 5847 5846 5846
5837 5837 5837 5837 5837 5837 5837 5837 5837 5837 5837 5837 5838 5838 5838 5839 5840 5841 5841 5842 5842 5843 5843 5844 5844 5844 5845 5845 5845 5845 5845 5845 5845 5845 5845 5845 5845 5845 5844 5844 5843 5843 5842
5836 5836 5836 5836 5836 5836 5835 5835 5835 5835 5835 5835 5836 5836 5837 5837 5838 5838 5839 5839 5839 5840 5840 5841 5841 5842 5842 5842 5842 5843 5843 5842 5842 5842 5842 5842 5842 5841 5841 5840 5840 5839 5839
5835 5835 5835 5834 5834 5834 5834 5834 5834 5834 5833 5833 5834 5834 5835 5836 5835 5836 5836 5836 5837 5837 5838 5838 5839 5839 5839 5840 5840 5840 5840 5840 5839 5839 5839 5839 5839 5838 5838 5837 5836 5836 5835
5835 5835 5834 5834 5833 5833 5833 5832 5833 5832 5832 5832 5832 5832 5833 5833 5833 5834 5834 5834 5834 5835 5835 5836 5836 5836 5837 5837 5837 5837 5837 5837 5836 5836 5836 5835 5835 5834 5834 5833 5832 5832 5831
5834 5834 5833 5833 5833 5833 5832 5832 5832 5832 5831 5831 5831 5831 5831 5832 5832 5832 5832 5832 5832 5832 5833 5833 5834 5834 5834 5834 5834 5834 5834 5834 5833 5833 5832 5832 5831 5831 5830 5829 5828 5827 5827
5834 5833 5833 5833 5832 5832 5832 5831 5831 5831 5830 5830 5830 5830 5830 5830 5831 5831 5830 5830 5830 5830 5830 5831 5831 5831 5832 5832 5831 5831 5831 5830 5830 5829 5829 5828 5828 5827 5826 5825 5824 5823 5822
5833 5833 5832 5832 5832 5831 5831 5831 5830 5830 5830 5829 5829 5829 5829 5829 5829 5829 5829 5828 5828 5828 5828 5828 5828 5829 5829 5829 5828 5828 5828 5827 5827 5826 5825 5824 5824 5823 5822 5821 5820 5819 5817
5833 5832 5832 5831 5831 5830 5830 5830 5830 5829 5828 5828 5828 5828 5827 5828 5828 5827 5827 5827 5827 5826 5826 5826 5826 5826 5826 5825 5825 5825 5824 5824 5823 5822 5821 5820 5819 5818 5817 5816 5815 5814 5813
5832 5832 5831 5830 5830 5829 5829 5829 5828 5828 5827 5827 5827 5827 5826 5826 5826 5826 5826 5825 5825 5825 5824 5824 5824 5823 5823 5823 5822 5822 5821 5820 5819 5818 5817 5816 5815 5814 5813 5811 5810 5809 5808
5831 5831 5830 5830 5829 5828 5828 5828 5827 5827 5826 5826 5825 5825 5825 5824 5824 5824 5824 5824 5824 5823 5822 5822 5821 5821 5820 5820 5819 5819 5818 5817 5815 5814 5813 5812 5811 5809 5808 5807 5805 5804 5802
5831 5830 5830 5829 5828 5827 5827 5827 5826 5825 5825 5825 5824 5823 5823 5823 5822 5822 5822 5821 5821 5821 5820 5819 5818 5818 5817 5817 5816 5815 5814 5813 5812 5810 5809 5807 5806 5804 5803 5801 5800 5798 5796
5830 5829 5828 5828 5827 5826 5825 5825 5824 5824 5823 5823 5822 5822 5822 5821 5820 5820 5819 5819 5818 5818 5817 5817 5816 5815 5814 5813 5813 5812 5810 5809 5807 5806 5804 5803 5801 5799 5797 5795 5794 5792 5790
5828 5828 5827 5826 5825 5824 5824 5823 5823 5822 5821 5821 5821 5820 5820 5819 5818 5817 5817 5816 5816 5815 5814 5814 5813 5812 5811 5810 5809 5807 5806 5804 5803 5801 5799 5797 5795 5793 5791 5789 5787 5785 5783
5826 5826 5825 5824 5823 5823 5822 5821 5820 5820 5819 5819 5818 5818 5817 5817 5816 5815 5814 5814 5813 5812 5811 5810 5809 5808 5807 5806 5804 5803 5801 5799 5797 5795 5793 5791 5788 5786 5784 5782 5779 5777 5775
5824 5823 5823 5822 5821 5820 5820 5819 5818 5818 5817 5817 5816 5815 5815 5814 5813 5813 5812 5811 5810 5809 5808 5807 5805 5804 5803 5801 5799 5798 5796 5794 5792 5789 5786 5784 5781 5779 5776 5774 5771 5769 5767
5822 5821 5820 5819 5819 5818 5817 5817 5816 5815 5815 5814 5813 5813 5812 5811 5810 5810 5809 5808 5806 5805 5804 5803 5801 5800 5798 5796 5794 5792 5790 5788 5785 5783 5780 5777 5774 5772 5769 5766 5763 5761 5759
5819 5818 5817 5817 5816 5815 5815 5814 5814 5813 5812 5811 5811 5810 5809 5808 5807 5806 5805 5804 5803 5801 5800 5798 5797 5795 5793 5791 5789 5787 5784 5782 5780 5777 5774 5771 5768 5765 5761 5758 5755 5752 5750
5816 5815 5814 5814 5813 5813 5812 5811 5811 5810 5809 5808 5808 5807 5806 5805 5804 5803 5801 5800 5799 5797 5796 5794 5792 5790 5788 5786 5784 5781 5778 5776 5773 5770 5767 5764 5761 5758 5754 5751 5747 5744 5741
5812 5812 5811 5810 5810 5809 5809 5808 5807 5807 5806 5805 5804 5803 5802 5801 5800 5799 5797 5796 5794 5792 5791 5789 5786 5784 5782 5779 5777 5775 5772 5769 5766 5763 5759 5757 5753 5750 5747 5743 5739 5736 5733
5809 5808 5807 5807 5806 5805 5805 5804 5803 5803 5802 5801 5800 5799 5798 5797 5795 5794 5793 5791 5789 5787 5785 5783 5780 5778 5775 5773 5770 5767 5765 5762 5759 5756 5752 5749 5746 5743 5740 5736 5732 5728 5725
5804 5804 5803 5803 5802 5801 5800 5799 5799 5798 5797 5796 5795 5795 5793 5792 5791 5789 5788 5786 5784 5782 5779 5777 5774 5772 5769 5766 5763 5760 5757 5754 5751 5749 5745 5742 5738 5735 5732 5729 5724 5720 5717